Location: Bamazo
(6.7448°N, 10.8189°W)
Time: 17:30:25
(UTC+00:00)

ATLAS 2AS CENTAUR R/B - Pass Details

Date: 18 September 2020
Orbit: 939 x 1273 km, 63.7° (Epoch: 19 October)

Event Time Altitude Azimuth Distance (km) Brightness Sun altitude
Rises 18:59:15 0° 170° (S) 3,996 5.6 -5.3°
Reaches altitude 10° 19:02:50 10° 153° (SSE) 3,094 4.8 -6.2°
Maximum altitude 19:07:51 19° 110° (ESE) 2,526 4.1 -7.4°
Drops below altitude 10° 19:13:02 10° 68° (ENE) 3,218 4.6 -8.7°
Sets 19:16:48 0° 52° (NE) 4,211 5.4 -9.7°
